{"data":{"norad_id":67926,"epoch":"2026-05-25T03:16:14.848608Z","epoch_age_seconds":73472,"freshness":"FRESH","line1":"1 67926U 26036Y   26145.13628297  .00013553  00000+0  50090-3 0  9996","line2":"2 67926  43.0016 173.5251 0001211 262.1887  97.8828 15.27594249 15410","mean_motion":15.27594249,"eccentricity":0.0001211,"inclination_deg":43.0016,"raan_deg":173.5251,"arg_perigee_deg":262.1887,"mean_anomaly_deg":97.8828,"bstar":0.0005009,"rev_number":1541,"period_min":94.265869418051,"perigee_km":482.17554526991,"apogee_km":483.8373142086,"semimajor_km":6861.1434297393,"source":"CELESTRAK","updated_at":"2026-05-25T13:38:21.742312Z"}}